Track TELSTAR 2 (A-41) now! 10-day predictions TELSTAR 2 (A-41) is classified as:
1 00573U 63013A 25142.03423564 -.00000071 00000-0 -10036-3 0 9992 2 00573 42.7711 37.3800 4014125 34.7686 353.3686 6.39271071561137